This is the latest recevied weather packets stored in our database for station/object W2GRK-15. If no packets are shown the sender has not sent any weather packets the latest 10 day(s).
| Time | Temp. | Humidity | Pressure | Rain* | Wind** | Luminosity | Snow |
|---|---|---|---|---|---|---|---|
| 1777393668 | 17.78° C | 44% | 1021.5 hPa | 0 mm | - | 476 W/m² | - |
| 1777393584 | 17.78° C | 44% | 1021.7 hPa | 0 mm | - | 465 W/m² | - |
| 1777393520 | 17.78° C | 43% | 1021.9 hPa | 0 mm | - | 452 W/m² | - |
| 1777393008 | 17.78° C | 44% | 1021.9 hPa | 0 mm | - | 490 W/m² | - |
| 1777392747 | 17.22° C | 45% | 1022.1 hPa | 0 mm | - | 471 W/m² | - |
| 1777392441 | 17.22° C | 44% | 1022.2 hPa | 0 mm | - | 375 W/m² | - |
| 1777392087 | 17.22° C | 48% | 1022.2 hPa | 0 mm | - | 422 W/m² | - |
| 1777392042 | 17.22° C | 47% | 1022.2 hPa | 0 mm | - | 409 W/m² | - |
| 1777391845 | 17.22° C | 47% | 1022.4 hPa | 0 mm | - | 393 W/m² | - |
| 1777391668 | 17.22° C | 47% | 1022.1 hPa | 0 mm | - | 396 W/m² | - |
| 1777391427 | 17.22° C | 47% | 1022.5 hPa | 0 mm | - | 391 W/m² | - |
| 1777391121 | 17.22° C | 47% | 1022.4 hPa | 0 mm | - | 358 W/m² | - |
| 1777390525 | 16.67° C | 45% | 1022.6 hPa | 0 mm | - | 478 W/m² | - |
| 1777390042 | 16.67° C | 47% | 1022.5 hPa | 0 mm | - | 436 W/m² | - |
| 1777389978 | 16.67° C | 45% | 1022.4 hPa | 0 mm | - | 423 W/m² | - |
| 1777388963 | 16.67° C | 48% | 1022.7 hPa | 0 mm | - | 587 W/m² | - |
| 1777388126 | 16.11° C | 50% | 1022.6 hPa | 0 mm | - | 369 W/m² | - |
| 1777387530 | 16.11° C | 49% | 1022.6 hPa | 0 mm | - | 294 W/m² | - |
| 1777387160 | 16.11° C | 49% | 1022.9 hPa | 0 mm | - | 301 W/m² | - |
| 1777386869 | 16.11° C | 48% | 1022.5 hPa | 0 mm | - | 315 W/m² | - |
| 1777386805 | 16.11° C | 48% | 1022.6 hPa | 0 mm | - | 313 W/m² | - |
| 1777386696 | 15.56° C | 47% | 1022.6 hPa | 0 mm | - | 320 W/m² | - |
| 1777386603 | 16.11° C | 47% | 1022.7 hPa | 0 mm | - | 348 W/m² | - |
| 1777385724 | 16.11° C | 48% | 1022.7 hPa | 0 mm | - | 365 W/m² | - |
| 1777385680 | 16.11° C | 48% | 1022.6 hPa | 0 mm | - | 397 W/m² | - |
* Rain latest hour (hover to see other rain measurements)
** Current wind speed in m/s (hover to see current wind gust speed)